This demonstration page uses our WeatherBlox Daily Observations layout. Learn more.

Left ArrowRight Arrow

32.84923, -109.75925

Hourly Observations for September 24, 2022

Temp ( °F °C ) Dew Point ( °F °C ) Humidity (%) Winds ( mph kmh ) Pressure ( in mb ) Visibility ( mi km ) Precip ( " mm )
12:51 am 00:51 Clear 70 21.1 67 19.4 90 90 SE 6 9 29.89 1012 10 16 0.00 0.00
1:51 am 01:51 Clear 68 20 67 19.4 96 96 S 3 6 29.89 1012 10 16 0.00 0.00
2:51 am 02:51 Clear 67 19.4 66 18.9 97 97 Calm 29.89 1012 10 16 0.00 0.00
3:51 am 03:51 Clear 65 18.3 65 18.3 100 100 SSE 5 7 29.90 1013 10 16 0.00 0.00
4:51 am 04:51 Clear 65 18.3 65 18.3 100 100 Calm 29.91 1013 10 16 0.00 0.00
5:51 am 05:51 Clear 64 17.8 64 17.8 100 100 Calm 29.94 1014 10 16 0.00 0.00
6:51 am 06:51 Sunny 66 18.9 66 18.9 100 100 Calm 29.96 1015 10 16 0.00 0.00
7:51 am 07:51 Sunny 70 21.1 62 16.7 76 76 Calm 29.98 1015 10 16 0.00 0.00
8:51 am 08:51 Sunny 73 22.8 63 17.2 71 71 SSW 7 11 29.99 1016 10 16 0.00 0.00
9:51 am 09:51 Sunny 77 25 63 17.2 62 62 VRB 3 6 29.98 1015 10 16 0.00 0.00
10:51 am 10:51 Sunny 82 27.8 62 16.7 51 51 VRB 3 6 29.97 1015 10 16 0.00 0.00
11:51 am 11:51 Sunny 86 30 58 14.4 39 39 WSW 6 9 29.94 1014 10 16 0.00 0.00
12:51 pm 12:51 Sunny 90 32.2 56 13.3 32 32 VRB 6 9 29.91 1013 10 16 0.00 0.00
1:51 pm 13:51 Sunny 92 33.3 54 12.2 28 28 W 12 19 29.88 1012 10 16 0.00 0.00
2:51 pm 14:51 Sunny 88 31.1 55 12.8 33 33 W 10 17 29.87 1011 10 16 0.00 0.00
3:51 pm 15:51 Sunny 93 33.9 53 11.7 26 26 W 5 7 29.84 1011 10 16 0.00 0.00
4:51 pm 16:51 Sunny 92 33.3 53 11.7 27 27 WNW 7 11 29.83 1010 10 16 0.00 0.00
5:51 pm 17:51 Partly Cloudy 88 31.1 57 13.9 35 35 S 7 11 29.84 1011 10 16 0.00 0.00
6:51 pm 18:51 Mostly Cloudy 84 28.9 59 15 43 43 S 6 9 29.86 1011 10 16 0.00 0.00
7:51 pm 19:51 Clear 81 27.2 60 15.6 49 49 Calm 29.88 1012 10 16 0.00 0.00
8:51 pm 20:51 Clear 77 25 60 15.6 56 56 Calm 29.91 1013 10 16 0.00 0.00
9:51 pm 21:51 Clear 75 23.9 59 15 57 57 Calm 29.91 1013 10 16 0.00 0.00
10:51 pm 22:51 Clear 76 24.4 54 12.2 47 47 NNW 5 7 29.90 1013 10 16 0.00 0.00
11:51 pm 23:51 Clear 71 21.7 56 13.3 59 59 N 5 7 29.90 1012 10 16 0.00 0.00

Powered by AerisWeather